Location: ???????
(55.3754°N, 39.3545°E)
Time: 06:07:31
(UTC+00:00)

Cosmos 44 - Pass Details

Date: 14 April 2026
Orbit: 568 x 782 km, 65.1° (Epoch: 10 May)

Event Time Altitude Azimuth Distance (km) Brightness Sun altitude
Exits shadow 21:16:14 41° 255° (WSW) 1,076 4.1 -25.0°
Maximum altitude 21:17:58 67° 323° (NW) 824 3.7 -25.0°
Drops below altitude 10° 21:23:20 10° 46° (NE) 2,336 6.5 -25.0°
Sets 21:25:49 0° 49° (NE) 3,275 7.4 -25.0°
